Regional Weather Roundup
Issued by NWS Goodland, KS

Home | Current Version | Previous Version | Text Only | Print | Product List | Glossary Off
Versions: 1 2 3 4 5 6 7 8 9 10 11 12 13 14 15 16 17 18 19 20 21 22 23 24 25 26 27 28 29 30 31 32 33 34 35 36 37 38 39 40 41 42 43 44 45 46 47 48 49 50

000
ASUS43 KGLD 200908
RWRGLD

GOODLAND FORECAST AREA HOURLY WEATHER ROUNDUP
NATIONAL WEATHER SERVICE GOODLAND KS
300 AM MDT SUN APR 20 2014

...OFFICIAL OBSERVATIONS...

CITY           SKY/WX    TMP DP  RH WIND       PRES   REMARKS
GOODLAND KS    PTCLDY    46  45  96 E3        30.00F FOG
HILL CITY KS   MOCLDY    55  51  86 SW5       29.98S
IMPERIAL NEB   PTCLDY    45  40  82 NW5       30.01R
MCCOOK NEB     MOCLDY    51  49  92 CALM      29.98S FOG
AKRON CO       PTCLDY    47  38  71 SW8       30.03F
BURLINGTON CO  PTCLDY    47  44  90 NE13      30.00F
LIMON CO       MOCLDY    41  39  93 N7        30.05F
$$

...UNOFFICIAL OBSERVATIONS...

CITY           SKY/WX    TMP DP  RH WIND       PRES   REMARKS
COLBY KS       CLEAR     48  48 100 E5        29.99S
LENORA KS        N/A     55  32  41 CALM        N/A
LEOTI KS         N/A     55  32  42 SW8         N/A
NORTON KS      CLEAR     54  46  76 CALM      29.96S
OBERLIN KS     MOCLDY    52  48  87 CALM      29.97S
SHARON SPRINGS   N/A     47  44  89 CALM        N/A
WAKEENEY KS      N/A     57  47  70 MISG        N/A
KIT CARSON CO    N/A     49  44  84 MISG        N/A
WRAY CO        FAIR      43  41  93 W5        30.01
$$



USA.gov is the U.S. government's official web portal to all federal, state and local government web resources and services.